{"data":{"norad_id":66820,"epoch":"2026-09-20T03:23:47.873184Z","epoch_age_seconds":145862,"freshness":"FRESH","line1":"1 66820U 25279A   26263.14152631  .00000751  00000+0  63091-4 0  9994","line2":"2 66820  97.7412 211.1017 0013678  54.3577 305.8918 15.01257689 43862","mean_motion":15.01257689,"eccentricity":0.0013678,"inclination_deg":97.7412,"raan_deg":211.1017,"arg_perigee_deg":54.3577,"mean_anomaly_deg":305.8918,"bstar":6.3091e-5,"rev_number":4386,"period_min":95.919575336809,"perigee_km":553.52286035517,"apogee_km":572.51108115757,"semimajor_km":6941.1539707564,"source":"CELESTRAK","updated_at":"2026-09-21T09:00:16.231053Z"}}